Regional Weather Roundup
Issued by NWS

Home | Current Version | Previous Version | Graphics & Text | Print | Product List | Glossary On
Versions: 1 2 3 4 5 6 7 8 9 10 11 12 13 14 15 16 17 18 19 20 21 22 23 24 25 26 27 28 29 30 31 32 33 34 35 36 37 38 39 40 41 42 43 44 45 46 47 48 49 50
000
ASUS43 KTOP 240859
RWRKS

WEATHER ROUNDUP FOR KANSAS
NATIONAL WEATHER SERVICE GOODLAND KS
400 AM CDT WED MAY 24 2017

NOTE:  "FAIR" INDICATES FEW OR NO CLOUDS BELOW 12,000 FEET WITH NO
SIGNIFICANT WEATHER AND/OR OBSTRUCTIONS TO VISIBILITY.

KSZ001>006-013>018-027>032-041>047-241000-
NORTHWEST KANSAS

CITY           SKY/WX    TMP DP  RH WIND       PRES   REMARKS
GOODLAND       CLEAR     36  34  92 W7        29.96F
HAYS           CLEAR     41  38  89 NW9       29.91F
HILL CITY      CLEAR     42  39  89 NW10      29.92F
RUSSELL        CLEAR     44  40  85 NW7       29.87F
$$

KSZ061>065-074>080-084>089-241000-
SOUTHWEST KANSAS

CITY           SKY/WX    TMP DP  RH WIND       PRES   REMARKS
DODGE CITY     CLEAR     42  37  82 NW9       29.93F
ELKHART          N/A     44  31  60 W6          N/A
GARDEN CITY    CLEAR     40  35  83 NW10      29.94F WCI  33
GREAT BEND     CLEAR     43  40  89 W8        29.89F
LIBERAL        CLEAR     42  39  89 W7        29.96F
$$

KSZ066>073-081>083-090>101-241000-
SOUTHEAST KANSAS

CITY           SKY/WX    TMP DP  RH WIND       PRES   REMARKS
CHANUTE        PTCLDY    53  46  77 NW9       29.77F
COFFEYVILLE    CLOUDY    54  47  77 NW14      29.78F
HUTCHINSON     CLEAR     46  41  82 NW8       29.86S
MEDICINE LODGE   N/A     42  39  89 NW3       29.89S
NEWTON         CLEAR     47  43  86 NW9       29.84F
PARSONS        CLOUDY    52  48  86 NW6       29.78F
WICHITA INTL   PTCLDY    48  43  82 NW9       29.85S
WICHITA JABRA  CLEAR     48  44  86 NW9       29.84S
WICHITA MCCONL CLEAR     50  43  75 NW10      29.84S
WINFIELD       CLEAR     48  44  86 NW8       29.85S
$$

KSZ007>012-019>026-033>040-048>060-102>105-241000-
NORTHEAST KANSAS

CITY           SKY/WX    TMP DP  RH WIND       PRES   REMARKS
CONCORDIA      CLEAR     45  43  93 NW7       29.84F
EMPORIA        CLEAR     47  45  93 NW6       29.79F
LAWRENCE       CLEAR     48  47  96 NW7       29.76F
MANHATTAN      CLEAR     48  44  86 CALM      29.81S
OLATHE IND     CLEAR     48  46  93 NW12      29.74F
OLATHE EXE     CLEAR     47  47 100 NW6       29.73F
SALINA         PTCLDY    48  43  82 NW9       29.85F
TOPEKA BILLARD CLEAR     49  47  93 W7        29.76F
TOPEKA FORBES  CLEAR     49  46  90 NW9       29.76F
$$




USA.gov is the U.S. government's official web portal to all federal, state and local government web resources and services.